Volver al catálogo

HBTSS-SV1

ActivoMilitarVLEO
NORAD 58960·PAYLOAD·🇺🇸 United States

Lanzado Feb 14, 2024 desde Cape Canaveral Space Force Station

Loading…

Próximos Pases (próximas 24 horas)

TLE

ActualizadoSource: Space-Track

Época: Sep 14, 2026, 16:54 UTC

1 58960U 24028F   26257.70420518  .00004828  00000-0  35611-3 0  9994
2 58960  39.9905 333.2695 0008888 113.2763 246.8967 15.03729217120621

Sigue HBTSS-SV1 en tiempo real con AllMySat

Download on the App Store